Theta_e
337 339 336 334 336 336 339 341 342 343 344 345 346 346 347 348 351 353 353 355 356 357 358 360 360 361 361 360 362 362 361 361 362 360 360 360 360 361 361 361 360 363 361 359 362 362 364 366 364 364 365 365 364 365 367 367 366 365 366 368 368 367 366
335 338 336 331 334 336 339 342 343 343 344 345 346 347 347 348 351 351 353 355 356 356 357 358 360 360 360 361 361 362 362 362 362 363 362 363 364 363 362 363 362 364 365 364 364 367 367 367 365 364 363 365 364 367 366 368 368 367 365 368 367 367 367
336 338 340 333 332 335 339 341 342 342 344 344 344 345 346 349 351 352 353 354 355 356 357 357 360 360 361 362 361 362 361 361 362 361 360 359 360 358 361 363 363 361 362 364 367 366 367 367 367 365 365 364 363 367 368 367 368 367 367 368 367 364 368
338 340 343 338 334 336 339 341 342 342 343 344 344 345 346 351 351 353 354 354 354 355 355 356 357 358 360 360 360 361 361 362 362 360 360 359 360 361 362 362 363 362 363 362 362 364 362 367 367 368 367 367 367 366 366 366 366 367 367 368 366 366 368
342 342 343 341 336 335 337 339 341 342 342 344 344 347 347 349 350 352 353 353 353 354 354 354 355 357 359 360 358 359 360 361 361 361 361 361 363 364 362 359 360 361 361 362 364 366 366 367 365 366 367 369 367 367 367 367 367 368 368 369 367 367 365
340 340 341 342 340 336 335 337 339 341 342 342 343 345 346 347 348 348 350 352 352 353 355 356 355 357 357 358 358 358 360 362 363 364 362 364 363 360 360 361 360 362 361 362 363 363 365 365 364 364 364 363 363 362 364 366 366 366 367 369 368 367 364
339 340 341 342 343 343 340 339 339 342 343 344 345 346 345 345 346 347 349 350 352 353 352 353 354 355 356 357 358 359 359 359 361 361 361 361 362 361 362 363 364 362 362 365 363 364 363 363 365 366 364 363 365 363 365 367 367 367 368 369 368 368 368
338 339 340 341 343 343 344 345 342 340 340 343 346 346 344 345 346 346 348 352 354 354 353 351 352 354 356 357 357 357 357 358 359 361 362 360 361 361 362 363 364 365 365 363 364 365 362 364 363 365 365 364 365 366 366 368 370 366 366 367 366 366 364
338 339 339 339 342 343 345 348 347 344 342 341 343 344 344 346 346 347 348 352 354 354 355 355 355 355 357 356 357 357 357 358 358 360 360 358 358 357 357 359 362 365 364 362 362 365 364 364 363 366 367 366 366 368 367 369 368 368 368 367 367 366 364
336 337 338 339 340 341 343 345 348 349 348 347 344 344 343 345 347 348 351 352 353 354 356 355 358 359 359 358 357 357 357 357 357 356 356 355 357 356 357 356 358 363 362 362 362 363 366 365 365 367 368 366 367 368 368 368 367 367 368 368 368 368 368
336 337 337 338 339 340 342 344 347 348 348 346 347 348 347 348 348 348 353 355 353 354 357 356 360 359 358 359 358 358 357 355 355 355 355 354 354 355 355 356 356 359 360 359 360 362 364 367 368 368 368 364 366 367 368 367 368 368 366 367 368 368 367
333 334 335 337 339 340 342 344 347 349 348 347 349 349 350 351 353 354 355 355 357 357 358 360 360 359 359 359 357 359 359 358 356 355 355 355 354 355 355 356 356 357 358 359 359 361 360 363 364 365 367 366 366 367 368 369 369 369 369 366 367 368 367
332 334 335 336 338 340 342 344 345 345 346 348 348 349 351 353 353 355 354 354 356 358 359 360 360 359 358 358 358 359 359 360 360 359 356 357 357 357 357 357 356 356 356 358 358 358 357 358 361 364 363 365 364 363 365 367 366 369 370 368 368 368 368
332 333 334 335 336 338 339 340 340 342 344 345 345 347 348 351 352 352 352 352 353 356 358 359 360 360 359 359 358 360 360 362 362 362 360 360 362 361 359 358 358 359 359 359 359 357 356 356 356 358 360 361 361 364 365 366 365 367 369 368 366 365 366
330 331 332 333 334 335 336 336 338 341 342 344 345 346 348 348 348 349 352 353 354 355 355 357 358 357 359 359 359 358 358 360 361 363 363 361 361 361 360 360 360 360 361 361 359 357 357 358 357 357 358 360 361 362 362 360 361 363 365 366 367 366 363
329 330 331 332 333 334 335 336 338 340 342 343 343 345 346 347 347 347 349 350 351 351 352 354 353 354 354 353 355 357 358 359 359 359 360 360 360 361 361 360 360 359 359 358 359 359 359 359 358 357 356 357 359 360 358 359 360 364 359 358 362 364 362
330 330 330 330 331 332 334 335 335 336 336 336 339 341 342 343 345 348 348 350 349 348 350 351 349 351 350 350 352 355 357 358 358 358 357 359 361 362 361 362 361 360 360 359 358 358 361 359 356 355 355 354 355 356 355 357 358 358 343 340 341 357 361
330 330 329 329 331 332 333 332 332 331 332 333 335 336 336 336 336 338 342 346 344 345 346 348 349 349 349 350 351 352 352 353 353 354 355 356 357 358 359 360 360 359 359 357 356 358 356 356 358 358 356 354 354 353 353 355 341 333 338 339 336 344 359
328 328 328 330 331 332 331 330 330 330 330 332 333 333 334 333 332 333 335 337 344 346 345 345 346 347 348 350 352 352 351 350 351 351 351 352 354 356 356 355 354 355 355 356 357 356 357 357 356 357 357 357 356 354 356 356 334 329 330 331 332 332 346
327 329 330 331 331 330 329 329 328 328 329 330 331 332 333 334 333 334 335 335 338 340 340 340 340 341 341 345 348 352 348 349 348 347 347 348 348 351 353 354 354 355 355 355 356 355 354 354 356 357 359 359 359 360 352 348 331 325 326 326 326 329 338
328 330 329 329 329 329 328 329 328 328 327 328 329 329 330 331 332 333 333 333 332 334 334 335 337 337 338 340 343 346 346 345 345 345 346 348 349 349 349 348 347 348 350 350 351 351 352 353 353 353 354 355 356 354 348 339 323 322 322 321 324 326 339
329 329 328 328 327 327 328 329 330 330 328 329 328 328 328 328 329 329 328 331 331 331 331 331 333 335 338 339 340 341 341 341 341 342 342 342 342 341 340 341 344 345 347 345 346 349 350 352 352 351 351 352 353 351 348 338 319 321 321 320 323 328 355
330 329 328 328 328 328 330 331 331 331 330 328 327 327 327 328 328 328 327 327 328 329 330 330 330 332 335 336 338 340 342 342 341 341 341 342 341 340 342 343 343 345 344 344 346 346 347 348 349 350 349 349 349 347 343 336 323 316 316 318 321 339 358
328 327 327 327 329 329 330 330 330 329 327 327 326 326 327 327 327 326 326 327 328 328 328 329 329 331 333 335 337 339 341 342 343 343 342 341 340 340 341 343 344 344 345 343 341 341 341 342 342 344 346 346 346 344 338 335 324 314 313 315 317 341 355
325 326 327 327 327 327 327 328 328 328 328 326 325 326 328 328 327 325 325 326 328 328 328 328 328 331 333 335 338 339 340 341 340 340 340 340 340 341 341 340 342 343 343 342 341 339 340 340 338 338 341 344 343 342 338 336 330 315 313 313 314 337 353
323 324 325 326 327 328 328 329 327 325 325 324 325 327 329 328 327 327 326 326 327 327 327 328 330 332 335 337 338 338 338 338 337 337 337 335 335 337 337 338 338 337 337 338 338 336 336 337 337 335 335 338 341 341 340 337 334 326 313 312 313 318 344
324 324 324 325 325 327 326 326 325 323 323 325 326 324 325 326 326 326 327 326 325 325 327 330 333 334 335 336 334 333 332 333 334 333 334 335 335 335 336 335 334 334 333 333 334 335 335 335 334 333 332 334 337 338 339 339 336 330 313 311 312 315 327
321 322 324 325 325 324 323 322 323 323 323 325 326 327 327 327 325 325 325 324 323 324 327 331 333 334 334 333 333 331 331 332 333 333 333 334 334 332 332 332 332 331 330 329 329 329 330 331 331 330 329 330 332 333 335 337 335 335 320 312 310 310 314
320 321 322 322 323 323 322 321 321 321 322 324 326 328 328 327 326 325 324 323 324 326 329 331 332 332 331 331 331 332 332 332 332 332 332 332 332 331 330 331 331 330 330 329 329 329 329 330 329 328 327 328 329 330 331 333 334 328 330 316 309 308 310
321 321 321 322 322 322 322 321 321 321 323 324 326 328 329 328 326 326 325 324 327 329 331 331 332 331 330 330 330 330 330 330 331 332 332 331 331 330 329 329 330 331 331 331 331 330 330 330 331 329 327 326 327 329 329 331 332 329 326 325 313 309 307
320 320 320 319 319 322 322 321 321 321 322 323 325 326 328 329 327 326 325 327 331 332 332 332 332 331 329 328 328 328 329 331 332 331 331 331 330 328 327 328 328 327 329 330 330 330 329 329 331 330 328 328 326 325 326 328 329 330 329 325 323 314 311
319 320 320 320 320 321 321 321 321 321 320 321 322 324 325 327 328 325 325 328 331 333 333 333 332 331 329 328 328 327 327 327 327 327 328 328 328 328 327 326 326 326 327 327 328 329 329 328 328 328 329 326 325 324 325 326 327 328 329 330 329 325 317
318 319 318 319 321 321 321 320 319 319 319 319 321 322 322 323 324 325 327 329 330 332 333 333 332 331 329 328 327 328 328 326 324 323 324 325 325 326 326 325 325 325 325 325 325 327 327 327 327 326 326 325 325 325 325 324 325 325 327 328 328 328 328
318 319 320 321 321 322 322 321 319 319 319 319 319 321 321 321 322 324 326 328 329 330 331 331 330 328 329 328 328 327 326 325 325 324 323 324 323 322 323 324 324 323 323 324 325 324 325 325 325 325 325 324 325 325 324 323 322 323 322 323 323 326 326
317 317 318 319 320 321 320 320 319 319 318 317 319 319 320 320 320 323 325 326 329 330 328 327 328 327 327 326 325 326 327 326 325 323 322 322 324 323 323 323 323 324 324 325 324 325 325 324 323 323 325 324 324 323 323 322 321 319 305 310 303 311 322
316 316 317 318 320 321 321 320 319 318 317 317 318 318 318 319 321 322 323 325 327 328 326 326 325 325 324 324 324 324 324 324 324 324 323 322 321 321 320 316 307 314 324 323 316 307 302 307 320 320 325 322 322 323 322 320 320 302 297 296 296 297 298
313 314 315 317 318 318 318 319 319 318 317 317 318 317 317 318 319 321 323 324 325 326 326 325 323 322 321 322 322 321 322 321 321 322 323 323 322 322 321 321 320 300 301 309 309 303 297 296 298 301 304 320 322 319 304 304 300 295 294 295 296 295 297
315 315 315 316 317 318 318 318 318 317 317 317 317 316 316 315 317 320 320 322 323 324 324 323 321 319 318 319 319 320 321 320 321 320 320 320 321 321 320 319 319 319 303 298 302 300 296 296 296 296 298 299 305 319 322 310 299 294 295 296 296 297 296
Wind_Speed
9 10 9 9 10 12 12 13 14 12 12 12 12 13 13 11 11 10 10 11 12 11 10 10 11 9 10 9 9 8 8 7 7 7 7 6 6 6 7 6 6 6 5 5 5 5 5 5 6 6 5 5 6 5 5 4 5 4 4 3 3 2 2
12 11 11 11 11 12 13 13 13 12 12 12 11 12 11 12 11 12 11 12 13 13 12 11 11 10 10 9 8 9 9 9 8 6 6 5 5 5 6 6 6 6 6 5 4 4 4 5 6 6 6 6 6 6 5 5 5 5 4 3 3 2 3
15 14 12 11 11 11 12 11 12 12 13 11 11 11 12 12 13 14 12 12 13 12 11 12 12 11 10 9 9 9 9 9 8 8 8 7 8 8 7 6 6 6 6 5 4 4 4 5 6 6 7 6 6 6 5 5 5 5 5 4 4 3 3
13 12 10 11 11 10 11 12 13 13 11 13 14 15 14 13 13 11 11 12 13 12 12 11 11 11 10 10 10 9 10 9 9 8 8 8 7 7 6 6 5 5 5 6 5 4 3 4 6 6 6 5 5 5 5 5 5 5 5 4 4 4 4
9 10 9 9 10 10 10 10 11 11 12 14 13 12 12 11 11 10 11 11 12 13 13 13 11 10 9 10 8 8 10 10 9 8 7 7 6 6 6 7 6 6 6 5 5 4 5 5 5 5 5 5 5 5 5 5 5 5 4 4 4 4 4
9 9 9 8 8 9 11 11 13 13 12 13 13 13 11 12 11 12 12 11 11 10 10 10 11 10 10 10 9 8 8 9 8 8 7 7 7 7 7 7 7 7 6 6 5 5 6 6 6 6 6 6 6 5 5 5 5 5 5 4 4 4 4
9 9 8 7 7 7 9 10 11 11 11 11 10 10 11 11 13 12 11 11 12 12 12 12 11 10 10 9 9 9 9 9 8 9 7 7 7 7 7 6 6 6 5 5 6 5 6 6 6 6 6 6 5 5 5 5 5 4 4 4 5 5 5
11 9 7 7 7 8 8 8 9 10 10 8 8 9 11 11 11 12 12 10 10 10 11 12 11 10 10 9 8 10 9 9 8 8 7 8 8 8 7 6 6 5 5 6 6 6 6 7 6 6 6 6 6 6 6 5 6 6 5 5 5 6 5
9 10 9 7 6 5 5 6 7 8 10 11 11 11 11 10 11 11 12 11 9 10 10 10 10 9 8 8 8 9 9 9 8 8 9 10 9 10 9 7 6 5 5 5 5 6 6 6 6 6 6 6 5 5 6 6 6 5 6 5 6 6 6
10 10 10 8 6 5 5 5 6 6 8 8 9 11 13 11 11 10 9 9 10 11 11 10 8 7 7 7 9 9 9 9 8 10 10 10 9 10 9 8 6 6 6 5 5 6 6 6 6 6 6 6 6 6 6 6 6 6 6 6 6 6 6
8 9 9 9 9 8 8 7 8 8 8 10 8 7 8 9 10 10 9 8 9 9 9 8 7 7 8 8 8 8 9 9 10 10 10 11 9 10 9 8 7 6 7 6 6 6 6 6 6 6 7 7 7 7 7 7 7 6 6 6 6 6 6
8 8 8 9 9 9 9 9 7 5 6 6 4 6 7 7 8 8 8 7 6 7 7 7 6 6 7 7 8 8 9 9 9 10 11 10 10 9 9 8 8 7 7 8 7 7 6 6 6 6 6 6 6 6 6 6 6 6 6 6 6 6 6
7 7 7 8 8 8 7 6 8 7 6 6 6 4 4 5 5 6 7 7 7 7 8 8 9 9 8 7 8 8 8 8 9 9 10 9 9 8 7 8 8 8 8 8 8 7 7 7 6 5 5 5 6 6 5 6 5 5 5 6 6 6 6
8 8 7 7 7 8 8 6 5 6 6 7 6 6 6 5 6 9 10 9 9 10 10 8 9 10 10 9 9 8 8 8 8 8 8 7 7 7 7 7 7 7 7 6 7 7 7 7 7 6 6 6 5 5 5 4 5 5 5 5 5 5 6
9 8 8 7 7 6 6 6 5 6 6 5 6 7 7 7 7 9 8 8 6 6 5 2 4 6 6 7 7 8 8 8 7 5 6 6 6 7 7 7 7 6 6 6 6 6 6 6 7 6 6 5 5 5 5 5 4 4 4 5 5 6 6
10 9 9 8 8 7 7 7 6 6 6 5 6 7 7 7 7 7 9 10 8 7 7 7 5 5 6 5 6 7 7 6 5 4 7 7 7 7 7 7 7 7 7 7 7 6 5 5 5 5 6 6 5 5 5 5 4 5 6 6 5 5 5
10 10 9 8 8 8 8 8 8 8 8 7 6 5 4 2 2 6 8 8 9 9 7 9 8 7 5 4 4 5 6 5 5 5 6 7 7 5 5 5 5 5 5 5 5 5 4 4 5 5 4 5 5 5 4 4 4 3 6 7 8 6 6
10 10 8 8 8 9 9 9 10 10 9 8 8 7 7 7 7 6 1 8 8 5 3 4 6 7 7 6 6 6 5 5 6 6 5 3 4 5 5 5 4 5 5 5 5 4 4 4 3 2 2 2 3 3 2 1 11 7 2 5 6 7 6
10 9 9 9 8 9 9 9 10 10 9 8 9 10 9 9 11 9 7 4 8 8 7 6 4 3 4 6 7 6 4 3 4 4 4 3 4 4 5 6 6 6 6 6 5 3 3 3 3 3 2 2 2 2 4 5 8 5 4 1 4 7 7
11 11 10 10 9 9 9 9 8 9 10 9 10 10 10 12 12 10 9 8 5 5 5 7 7 7 7 5 4 4 6 6 6 7 6 6 4 5 5 6 5 5 5 5 5 4 4 3 3 3 3 3 4 6 7 7 9 8 6 3 1 4 6
11 11 11 11 11 10 10 11 11 11 10 9 9 8 9 9 9 9 9 7 9 7 8 8 9 10 10 8 6 7 7 9 7 6 5 5 6 5 3 4 5 5 5 6 5 6 4 3 4 4 3 3 4 6 7 6 9 7 7 6 4 2 5
11 11 11 11 11 10 10 10 10 11 10 9 9 10 10 9 9 10 9 8 9 8 8 8 8 8 8 9 7 7 7 6 8 10 9 8 7 7 8 7 7 7 5 7 5 5 6 5 5 5 5 4 5 5 7 7 10 9 8 6 5 4 2
12 12 12 12 12 12 11 11 11 11 9 9 10 11 11 10 9 10 10 9 9 8 7 8 8 6 7 8 6 8 7 7 9 9 8 7 7 6 4 3 4 5 5 5 6 7 7 8 7 7 8 7 7 7 8 7 10 10 10 9 7 3 2
9 11 12 13 13 12 12 12 12 12 12 11 10 8 9 10 10 10 11 10 9 9 9 8 8 6 6 6 6 7 6 8 8 7 6 7 7 9 8 6 5 7 6 7 7 8 8 8 8 8 7 8 7 7 7 7 9 12 12 11 10 5 2
10 10 11 12 14 14 13 11 12 12 12 12 11 8 8 7 9 11 11 9 8 9 10 9 6 6 7 7 7 8 8 8 9 9 7 8 9 10 9 9 7 6 7 7 7 7 6 7 8 9 7 7 8 10 8 8 9 12 13 13 13 7 4
9 9 10 11 12 13 12 12 13 13 12 12 9 7 9 9 10 10 9 8 7 9 9 7 4 5 7 8 9 9 7 8 9 9 9 9 8 8 8 8 8 8 7 7 6 6 6 6 7 9 8 7 6 7 7 9 9 11 13 14 15 14 6
8 8 9 10 11 11 10 9 10 11 11 8 7 7 8 9 10 9 9 8 8 7 6 5 5 6 7 7 9 9 9 7 8 10 10 9 9 9 8 8 8 7 8 7 5 6 6 7 7 8 8 7 7 7 8 7 8 10 13 14 14 15 11
9 9 8 9 9 10 10 10 11 12 10 8 7 8 8 9 10 8 8 8 8 5 3 4 6 7 8 8 9 9 9 8 8 8 8 8 8 9 9 8 8 7 6 5 6 7 7 6 6 7 7 7 8 9 9 10 12 7 12 13 14 13 13
12 12 12 11 10 9 11 10 10 10 9 7 7 7 8 11 10 8 8 8 5 3 3 5 6 7 8 8 9 9 8 8 8 7 7 7 8 8 8 7 8 8 7 7 7 7 6 6 5 6 6 6 6 7 7 7 7 9 8 10 11 12 12
10 10 10 9 10 10 12 12 10 10 9 7 6 6 6 8 9 8 9 7 3 3 4 6 7 7 8 8 8 8 8 8 8 7 7 8 7 8 8 8 8 7 6 5 5 6 6 5 5 6 6 7 7 6 5 4 3 6 9 9 12 13 13
11 11 10 11 10 8 8 11 12 11 10 8 8 6 6 6 9 10 9 4 3 4 5 6 7 7 8 8 7 7 7 7 7 7 7 7 7 7 7 7 7 7 5 5 5 5 6 5 5 6 6 7 7 5 5 4 5 6 9 12 11 13 12
10 10 10 10 10 9 10 11 11 12 11 10 8 7 6 6 7 9 7 4 3 4 5 6 7 7 7 7 7 8 8 9 9 9 8 8 8 8 7 7 7 6 5 5 5 5 6 6 5 5 6 7 6 5 5 5 5 6 7 7 8 8 10
11 12 12 11 10 10 10 10 10 11 11 10 8 7 7 7 7 7 6 5 5 6 6 7 7 8 7 7 7 7 8 9 8 8 8 8 7 7 7 7 6 6 6 5 6 6 6 6 6 6 6 6 6 5 5 6 6 6 6 6 5 6 6
10 10 10 10 9 9 10 10 11 11 10 9 7 7 7 7 6 5 4 5 6 7 7 7 7 8 8 8 7 7 8 9 10 9 7 7 7 7 7 7 6 7 7 6 5 5 6 6 6 5 5 5 4 4 4 5 6 6 6 6 6 6 6
8 8 8 9 8 8 9 10 11 11 11 8 7 7 7 7 6 5 6 5 6 7 8 9 10 9 10 9 8 7 6 7 7 7 8 8 8 8 7 6 6 7 7 7 6 5 4 5 6 5 5 4 5 4 4 5 6 5 5 5 6 4 5
6 6 6 6 7 8 9 10 11 11 10 8 7 7 7 7 6 6 5 5 6 8 9 9 9 9 8 7 7 7 6 6 6 6 6 7 8 9 9 11 11 9 5 6 8 11 11 9 6 4 4 6 6 6 5 5 4 5 5 5 5 4 3
9 6 5 4 6 8 7 7 9 10 9 7 7 7 7 7 6 6 6 5 6 7 8 7 7 7 7 7 7 6 6 6 6 6 6 6 6 6 8 8 9 12 12 9 8 9 10 11 11 14 12 7 5 6 8 7 6 6 5 5 2 2 1
8 8 5 3 3 5 7 7 7 8 8 6 7 6 6 7 6 6 6 6 6 6 7 7 7 7 7 7 7 7 7 6 6 6 6 6 5 5 5 6 8 8 9 9 11 10 10 10 10 9 10 12 9 5 3 4 6 7 6 5 2 3 7
Wind_Direction
163 178 180 181 183 187 185 184 184 182 183 187 187 187 184 181 178 175 180 180 187 186 187 190 189 187 191 192 191 189 192 191 190 199 202 207 211 207 205 209 210 213 219 219 214 215 213 212 213 215 215 218 226 228 233 234 236 236 236 243 259 269 268
178 182 179 184 187 191 189 186 185 186 186 186 181 183 186 184 178 183 186 184 187 187 184 190 191 191 192 192 189 189 191 192 192 194 200 203 203 209 213 208 211 208 214 224 216 210 204 203 212 210 214 217 225 229 226 222 225 232 233 227 244 256 256
178 180 177 175 183 186 183 182 187 190 187 184 182 184 188 187 184 187 184 184 187 189 187 189 192 191 191 190 188 192 195 194 194 196 201 208 209 215 211 214 215 218 219 217 219 215 204 204 200 206 213 218 223 213 219 218 220 222 224 229 238 240 245
171 171 167 171 176 177 179 183 186 190 189 185 185 189 192 190 189 183 186 187 186 187 189 191 193 195 192 190 193 193 195 197 198 201 207 212 207 203 199 204 212 217 206 217 219 220 218 202 196 199 205 220 222 222 214 218 218 215 218 222 235 236 242
145 137 144 158 169 175 178 182 184 189 189 191 193 194 196 189 182 181 186 192 195 194 193 191 194 197 196 194 197 198 199 198 196 199 205 209 207 198 201 207 201 210 213 213 205 205 208 207 206 202 205 212 219 212 218 219 225 219 221 221 237 236 241
145 147 153 157 161 174 177 180 185 188 187 189 191 189 188 185 187 191 191 189 196 194 189 189 194 193 196 198 202 200 196 197 194 195 198 197 199 206 206 204 204 207 205 210 204 207 201 210 209 207 212 212 216 221 221 221 224 224 222 224 239 246 247
150 149 144 144 149 152 167 173 181 183 185 191 188 186 187 189 192 193 192 194 192 188 188 190 194 194 196 196 200 199 199 201 198 198 198 202 198 209 208 205 204 205 212 191 203 197 199 204 209 209 214 220 218 223 220 223 230 229 230 230 234 240 251
169 157 138 138 139 147 154 161 175 181 181 180 173 175 189 191 187 189 193 190 188 190 195 197 194 195 191 192 194 201 202 206 199 197 196 202 198 208 206 204 200 199 194 202 197 199 202 203 205 208 211 219 217 220 221 215 214 223 221 227 234 242 238
168 167 157 147 140 144 148 149 153 163 168 175 176 184 188 188 190 190 190 180 181 186 192 196 194 190 185 186 189 196 200 202 200 198 202 208 207 211 213 207 204 190 201 211 196 193 206 204 206 196 202 213 217 217 222 218 220 216 215 219 224 234 246
163 162 157 155 149 152 165 157 149 148 157 158 169 182 188 189 191 189 184 184 183 192 191 191 180 173 175 184 194 198 198 199 205 207 209 215 216 218 219 221 213 197 208 212 210 195 198 206 205 197 197 207 208 213 218 215 218 217 215 217 222 226 228
161 159 161 165 164 164 169 174 167 166 158 149 180 198 194 181 182 184 179 178 188 190 181 184 175 176 184 190 192 195 202 205 206 207 213 220 221 220 221 221 223 211 215 220 220 212 201 195 201 200 199 209 210 211 212 216 217 217 222 220 220 224 231
153 160 165 170 170 170 175 177 175 161 152 154 194 181 173 178 180 176 160 169 181 166 154 157 156 174 186 191 199 200 203 209 210 211 213 219 223 224 220 219 220 218 213 220 224 221 221 212 207 205 210 217 222 223 224 222 220 219 227 227 221 218 227
152 153 159 166 174 177 175 179 179 172 167 156 159 165 182 172 149 129 127 142 151 161 165 163 161 161 175 191 205 208 209 208 213 215 219 214 220 222 215 216 219 220 220 215 221 225 231 224 222 209 225 225 231 237 236 234 234 228 230 235 234 229 230
147 148 151 152 160 167 169 163 159 173 177 166 160 169 174 166 153 165 175 174 167 165 174 175 167 163 168 176 195 205 208 207 210 217 220 218 212 214 219 219 218 219 223 220 218 225 230 235 230 224 225 232 238 237 244 241 243 237 237 241 244 243 240
158 156 152 148 142 143 135 138 152 165 165 169 172 171 167 165 166 175 184 184 169 167 143 126 145 147 158 171 185 196 211 215 215 212 212 217 212 214 216 215 213 212 216 216 224 224 224 227 233 232 232 231 231 238 238 241 242 243 240 243 240 244 253
158 156 153 145 133 126 125 124 131 144 158 153 165 164 172 174 173 179 181 179 172 168 154 158 149 158 172 165 185 194 192 189 185 202 220 216 213 211 210 215 213 213 208 206 210 207 211 214 219 229 230 229 224 227 233 233 239 222 219 237 261 267 271
164 159 149 139 130 118 111 106 103 102 97 96 110 126 129 94 176 191 183 172 170 163 158 162 164 170 173 173 168 181 190 182 183 194 215 221 219 201 200 197 195 195 188 188 192 193 180 199 200 212 219 226 232 225 227 236 238 208 215 224 236 255 263
167 161 156 145 128 118 111 100 97 95 91 83 77 73 67 68 68 65 108 181 169 162 142 144 158 168 172 171 172 180 184 191 196 207 219 230 240 221 206 188 173 171 162 166 160 162 181 172 152 148 187 206 217 222 224 103 32 8 352 240 230 226 248
161 159 152 147 135 124 110 102 101 100 95 90 83 77 77 77 72 72 76 88 166 182 185 177 168 155 178 184 186 188 159 172 173 170 167 204 231 215 200 191 187 180 173 160 157 152 164 149 152 136 128 121 133 117 94 73 18 13 23 169 211 215 228
160 152 146 139 134 124 112 104 98 93 91 91 92 90 87 81 81 76 69 67 79 112 110 114 106 106 95 93 139 162 161 153 136 137 136 142 188 224 205 192 178 166 157 144 150 151 158 170 132 111 105 98 105 86 61 45 10 0 21 18 288 193 197
153 151 139 132 126 117 107 108 106 101 97 98 98 93 86 78 79 80 69 60 71 70 83 87 96 92 92 86 95 111 122 133 128 119 123 141 155 149 119 87 72 75 70 62 75 106 100 103 109 98 102 116 114 94 69 45 12 17 14 10 343 172 218
157 149 138 132 117 106 104 99 99 101 100 99 100 96 89 91 86 78 74 73 70 62 62 66 75 90 98 104 101 102 104 103 107 108 101 93 82 79 80 67 54 57 77 110 106 90 105 104 106 116 121 118 107 96 72 50 19 14 18 18 9 278 214
155 145 131 122 115 110 103 99 97 97 96 94 95 97 98 97 89 89 84 75 78 74 66 69 53 37 72 89 85 95 99 98 103 106 107 101 98 96 97 112 115 115 119 108 102 97 92 95 88 87 89 92 94 86 70 52 19 13 19 20 10 306 121
127 126 125 119 115 114 110 106 105 100 97 90 81 85 96 95 94 91 87 78 73 73 66 63 72 59 54 60 71 83 91 101 97 90 90 100 108 109 106 101 97 101 96 92 93 90 87 90 87 81 84 89 92 94 89 66 36 25 22 19 13 3 91
128 127 126 127 126 121 115 108 106 104 101 95 87 81 85 86 86 88 87 82 82 84 79 72 69 77 83 87 84 79 75 72 87 90 80 89 93 94 91 91 89 85 80 77 75 75 79 79 81 78 57 56 83 77 72 67 49 35 30 25 16 9 70
135 132 125 120 116 113 112 114 109 103 99 98 98 99 98 94 86 83 84 84 71 66 73 74 57 82 85 85 81 74 62 73 87 91 88 80 68 65 71 81 79 77 82 75 73 79 67 70 74 79 78 71 69 76 73 62 53 37 36 34 28 12 26
120 122 123 118 111 112 109 102 98 98 99 97 103 103 93 90 88 83 80 77 71 64 60 82 94 87 92 96 94 89 84 77 85 93 92 91 89 88 83 79 80 71 74 73 67 76 77 73 70 70 65 59 53 51 65 64 59 46 37 38 37 28 22
131 118 105 106 111 111 107 103 101 102 99 98 101 99 96 93 87 82 77 72 65 49 42 69 86 92 87 81 86 91 91 89 86 84 88 89 91 89 85 84 84 82 81 80 69 64 67 72 80 80 74 66 55 50 50 52 49 48 43 38 38 39 34
146 142 137 133 125 120 116 107 98 92 90 85 86 88 97 96 92 88 80 72 60 44 59 75 82 81 83 83 82 79 76 75 80 83 88 88 90 93 93 94 93 91 90 90 87 83 78 76 87 89 86 79 74 67 58 55 53 43 54 52 44 40 42
143 135 134 128 124 123 115 108 104 97 85 76 68 67 77 95 96 91 83 72 47 62 84 89 90 89 86 84 81 80 78 79 78 78 82 84 83 81 80 80 85 87 89 94 100 103 98 90 87 89 85 90 83 70 66 60 59 56 45 50 46 43 41
144 137 131 127 121 113 109 111 110 103 90 77 70 64 65 79 96 91 83 68 67 74 92 96 99 99 99 98 92 89 88 80 77 74 72 70 73 74 74 72 75 81 72 74 76 76 80 80 77 79 87 84 74 65 50 39 42 43 37 37 47 45 40
133 127 122 118 117 113 111 106 100 96 92 79 71 68 59 58 77 91 94 101 86 93 99 104 103 101 101 101 98 99 100 97 89 82 78 76 72 69 67 71 69 71 71 74 73 72 75 74 76 79 83 88 82 70 60 47 43 42 37 33 38 46 33
136 134 132 125 122 121 115 109 101 97 92 85 75 76 74 70 73 90 105 102 107 105 102 102 105 106 106 104 102 96 98 100 102 97 86 81 81 78 76 73 71 67 65 63 65 70 75 77 78 80 83 90 88 76 64 54 45 36 31 25 27 35 34
125 121 116 119 121 116 110 104 103 99 92 83 73 71 74 76 76 78 87 92 100 105 104 103 108 112 110 111 109 105 100 96 92 94 90 82 81 81 78 73 69 67 54 41 40 61 71 74 74 73 78 84 83 78 71 66 56 39 24 19 17 20 29
52 75 96 104 107 108 106 109 104 101 98 92 84 79 72 69 71 73 77 77 94 104 103 106 104 104 113 116 120 108 94 98 98 94 93 88 78 63 46 46 62 71 65 42 30 22 56 87 88 83 79 75 68 65 70 59 56 42 3 354 347 351 18
71 42 47 66 81 80 91 100 107 107 104 97 92 86 79 69 60 58 68 71 94 111 115 111 104 98 97 100 102 102 98 97 93 92 98 101 99 96 81 56 45 29 57 73 40 42 39 40 57 27 41 72 58 33 40 55 47 32 4 345 327 315 320
100 84 70 59 96 105 101 103 107 110 108 105 99 92 86 77 66 61 58 63 70 88 102 104 100 96 98 94 93 91 99 99 95 90 88 91 100 104 106 103 75 57 54 61 66 60 56 58 51 42 28 22 74 69 57 48 25 15 9 19 356 247 135
88 97 88 41 54 96 108 110 113 116 114 109 104 97 93 88 79 66 74 72 72 78 86 93 102 102 99 99 100 94 92 95 94 95 93 88 87 94 103 107 107 86 50 64 75 70 73 73 65 55 49 35 22 23 96 73 41 9 4 9 46 70 47